User: anonymous   Login
Location: Saluda
(35.2377°N, 82.3468°W)
Time: 14:23:05
(UTC+00:00)
Language:

Courier 1B Rocket - Orbit

View from above orbital plane
View from above orbital plane
View from above satellite
View from above satellite

Ground track
Ground track

The orbit data is extracted from the following two-line orbital elements,

1 00059U 60013B   22275.61547047  .00000131  00000-0  58652-4 0  9991
2 00059  28.2471 237.8175 0189306 112.8334 249.2321 13.53006628 59700
Epoch (UTC): 02 October 2022 14:46:16
Eccentricity: 0.0189306
inclination: 28.2471°
perigee height: 920 km
apogee height: 1202 km
right ascension of ascending node: 237.8175°
argument of perigee: 112.8334°
revolutions per day: 13.53006628
mean anomaly at epoch: 249.2321°
orbit number at epoch: 5970

The dashed part of the orbit path shows where the satellite is in the earth's shadow,  

DLR